STARLINK-31491, 59011

Orbit data source: Space-Track

STARLINK-31491, 59011 is a payload satellite owned by SpaceX/Seattle (US) in LEO that was launched on Fri, 23 Feb 2024 UTC via an FALCON 9 launch vehicle from the Air Force Western Test Range (AFWTR). Payload-class satellites include a variety of spacecraft equipped with specific instruments for various scientific and technological missions. These include communications satellites like Starlink; space stations such as the ISS; scientific satellites like the Hubble; Earth observation satellites from companies like Planet Labs, Umbra, and HawkEye 360; GPS; miniature CubeSats for education and research; and military/defense satellites.

Loading next visibility...
Identifier
59011, 2024-036P
Orbit
LEO
Country
Flag of USUS
Related business
Manufacturer
SpaceX/Seattle
Mission
Operational Commercial Communications
Bus & Motor
STARLINK V2M, Unknown motor
Mass
730 kg wet, ~700 kg dry
Launch date (UTC)
2024-02-23 (2 years ago)
Launch vehicle
FALCON 9
Launch site
Air Force Western Test Range (AFWTR)
Object type
Payload
Rocket body
Debris
Shape & HBR
Box + 2 Pan, 17.7 m
Radar Cross Section
33.884 m², Large (>1 m²)

Expand to show TLE details & history
Last TLE update: 2 days ago

TLE from 2 days ago
0 STARLINK-31491
1 59011U 24036P   26171.40201025 -.00000204  00000-0  52291-5 0  9993
2 59011  53.1619 321.4183 0001355  87.8057 272.3099 15.30196234131049
Epoch: 2026-06-20T09:38Z
TLE epoch observation values (Epoch: 2026-06-20T09:38:53.685Z)
Latitude
-0.00002°
Longitude
-91.92256°
Altitude
476.089 km
Speed
7.629 km/s
True Right ascension
21h 25m 40s
True Declination
0° 00' 00"
Sunlit
Object was in full shadow at epoch
Visualization orbit readout
Latitude
Unknown
Longitude
Unknown
Altitude
Unknown
Speed
Unknown
Apparent Right ascension
Unknown
Apparent Declination
Unknown
Sunlit
N/A
Visualization observer readout
Local Sidereal Time
21:33:59
Azimuth
Unknown
Elevation
Unknown
Doppler factor
Unknown
Orbital elements
Apogee altitude
476.411 km
Perigee altitude
474.554 km
Semi-major axis
6,853.619 km
Eccentricity
0.00014
Inclination
53.1619°
RAAN
321.4183°
Arg. of periapsis
87.8057°
True anomaly
272.29439°
Mean anomaly
272.3099°
Eccentric anomaly
272.30214°
Mean motion
3.82528 °/min
Orbital period
94.11 mins
BSTAR
0.0000052291
Loading maneuver chart data...
Computing Atmospheric mass density...
Loading historical data...
Loading historical data...
Loading historical data...
Loading historical data...
Loading historical data...
Loading historical data...
Loading historical data...

Documentation

Showing up to 5 results
|